Location: Unspecified
(50.7693°N, 0.0000°E)
Time: 20:57:02
(UTC+00:00)

Transit 4A - Pass Details

Date: 03 July 2019
Orbit: 862 x 982 km, 66.8° (Epoch: 21 July)

Event Time Altitude Azimuth Distance (km) Brightness Sun altitude
Rises 16:09:42 0° 311° (NW) 3,679 11.5 35.5°
Reaches altitude 10° 16:13:50 10° 286° (WNW) 2,707 11.5 34.9°
Maximum altitude 16:16:31 13° 260° (W) 2,470 11.7 34.5°
Drops below altitude 10° 16:19:11 10° 234° (SW) 2,668 11.3 34.0°
Sets 16:23:13 0° 209° (SSW) 3,579 11.3 33.4°
